MDT,Max TemperatureF,Mean TemperatureF,Min TemperatureF,Max Dew PointF,MeanDew PointF,Min DewpointF,Max Humidity, Mean Humidity, Min Humidity, Max Sea Level PressureIn, Mean Sea Level PressureIn, Min Sea Level PressureIn, Max VisibilityMiles, Mean VisibilityMiles, Min VisibilityMiles, Max Wind SpeedMPH, Mean Wind SpeedMPH, Max Gust SpeedMPH,PrecipitationIn, CloudCover, Events, WindDirDegrees
2013-10-1,73,58,42,43,37,28,78,47,24,30.13,30.02,29.89,10,10,10,14,9,17,0.00,0,,86
2013-10-2,77,60,43,48,42,34,95,60,21,29.98,29.94,29.90,10,10,10,20,8,25,0.00,0,,8
2013-10-3,60,51,42,47,42,36,96,75,55,29.92,29.84,29.77,10,9,4,18,10,23,0.00,4,Rain,24
2013-10-4,46,38,31,46,33,23,98,80,61,30.20,30.02,29.77,10,8,0,36,18,47,0.00,5,Rain-Snow,331
2013-10-5,57,44,30,24,20,10,74,43,15,30.20,30.16,30.12,10,10,10,34,19,47,0.00,2,,317
2013-10-6,67,54,41,34,30,16,76,41,26,30.26,30.23,30.18,10,10,10,25,15,32,0.00,0,,329
2013-10-7,77,55,33,40,33,24,96,53,14,30.21,30.08,29.92,10,10,7,10,6,,0.00,0,,213
2013-10-8,78,60,41,44,34,25,83,47,14,29.91,29.82,29.74,10,10,10,17,8,23,0.00,0,,348
2013-10-9,66,54,41,44,38,31,79,57,38,29.98,29.91,29.76,10,10,7,15,9,22,0.00,0,,357
2013-10-10,73,56,38,48,42,34,96,74,24,29.96,29.73,29.51,10,10,7,29,8,34,0.00,3,Rain-Thunderstorm,304
2013-10-11,60,50,41,43,40,32,91,71,36,30.09,29.81,29.53,10,10,10,23,8,33,0.00,6,Rain,21
2013-10-12,59,48,38,41,37,35,91,68,47,30.21,30.16,30.10,10,10,10,23,8,31,0.00,6,,123
2013-10-13,68,51,34,50,40,32,89,64,35,30.20,30.09,29.91,10,10,10,25,10,34,0.00,1,,131
2013-10-14,58,46,34,50,39,27,91,77,60,30.17,29.94,29.81,10,9,4,36,17,46,0.00,3,Rain-Thunderstorm,329
2013-10-15,45,36,27,28,26,25,91,69,49,30.32,30.24,30.19,10,10,10,30,16,38,0.00,1,,339
2013-10-16,54,40,25,31,26,23,95,65,32,30.22,30.09,30.00,10,10,10,13,4,,0.00,0,,295
2013-10-17,48,39,30,33,30,26,96,71,51,30.13,30.08,30.05,10,10,4,16,9,18,0.00,3,Rain-Snow,14
2013-10-18,43,36,28,32,29,23,100,81,47,30.22,30.15,30.10,10,7,0,26,10,33,0.00,4,Fog-Snow,317
2013-10-19,62,45,28,32,28,22,94,61,22,30.10,30.00,29.90,10,10,10,10,6,,0.00,1,,272
2013-10-20,50,41,32,38,33,29,97,75,52,30.14,30.01,29.89,10,10,3,23,9,26,0.00,4,Rain,316
2013-10-21,60,44,28,38,32,28,99,71,31,30.17,30.13,30.08,10,8,0,16,9,26,0.00,5,Fog-Snow,286
2013-10-22,68,52,37,36,33,29,85,52,25,30.21,30.15,30.11,10,10,4,17,8,23,0.00,2,,291
2013-10-23,66,49,32,38,32,27,94,59,23,30.26,30.16,30.10,10,10,4,13,5,10,0.00,0,,357
2013-10-24,56,43,30,38,34,29,97,77,48,30.31,30.26,30.21,10,10,10,13,7,,0.00,0,,97
2013-10-25,68,48,28,40,34,28,99,66,26,30.25,30.17,30.08,10,9,0,13,5,17,0.00,0,Fog,266
2013-10-26,63,49,35,38,32,28,90,55,27,30.36,30.27,30.13,10,10,10,16,8,,0.00,0,,284
2013-10-27,73,52,30,36,29,19,96,54,13,30.13,29.97,29.85,10,10,2,15,8,9,0.00,0,,236
2013-10-28,46,39,32,33,31,28,97,86,49,30.10,30.03,29.88,10,8,4,24,12,30,0.00,7,,49
2013-10-29,37,34,32,35,33,31,99,94,84,30.05,29.99,29.94,10,6,0,8,5,,0.00,8,Fog-Snow,62
2013-10-30,54,43,32,37,34,29,98,82,39,29.96,29.86,29.81,10,8,0,18,6,21,0.00,5,Rain,285
2013-10-31,57,44,30,33,26,20,96,56,24,29.88,29.82,29.79,10,10,7,22,9,29,0.00,2,,293